Location: *
(24.1434°N, 56.8729°E)
Time: 05:52:55
(UTC+00:00)

Cosmos 1825 Rocket - Pass Details

Date: 09 April 2020
Orbit: 604 x 631 km, 82.5° (Epoch: 05 June)

Event Time Altitude Azimuth Distance (km) Brightness Sun altitude
Rises 15:54:55 0° 352° (N) 2,875 7.3 -19.2°
Reaches altitude 10° 15:57:08 10° 350° (N) 1,964 6.5 -19.7°
Maximum altitude 16:01:28 73° 266° (W) 636 3.7 -20.6°
Enters shadow 16:04:35 18° 184° (S) 1,481 5.3 -21.3°
